Vertical_Velocity
0 0 -5 3 -1 -1 -3 -0 -1 4 -4 -0 -0 -6 1 3 -3 -4 -2 -0 1 -1 0 -3 -1 -1 -0 -2 -2 -1 -6 -5 -4 0 -0 -1 -1 -2 -3 -3 -3 -2 -1 -0
0 -9 6 -5 2 -0 -1 -2 -4 3 -1 1 3 -9 -7 6 -6 -3 -5 -5 -0 4 5 0 1 1 0 1 1 -2 -1 0 -1 -1 0 0 -1 2 1 0 -0 1 0 -1
3 -0 -1 2 -1 1 -0 -1 -1 0 -4 -2 -2 -18 -9 -4 1 -1 4 6 5 5 3 4 1 3 2 3 6 6 4 5 3 1 -2 -1 -3 -2 -3 2 3 3 2 -1
-1 -3 -2 2 2 1 1 5 -0 -0 2 -0 -0 -13 -9 0 -1 -2 4 9 1 -0 -1 1 1 3 1 2 4 3 3 4 3 -0 4 4 5 3 1 -6 -5 -1 -1 -1
-3 -0 1 -1 5 -0 0 -1 1 2 1 -0 1 2 -2 -3 -4 1 13 0 3 0 0 1 4 7 8 5 2 2 2 2 3 4 3 2 0 1 2 5 5 1 0 3
2 4 -1 -1 1 0 -1 -2 -2 1 1 2 -2 -2 -7 -3 -2 0 7 -2 8 2 1 1 1 -2 -3 -1 0 2 3 3 1 3 -0 -2 -0 -3 -2 -4 -3 1 2 3
6 -2 -0 2 3 2 1 0 2 3 2 -4 -2 5 -27 -2 8 5 -0 1 2 2 2 2 -0 0 2 3 3 0 -0 3 4 5 3 3 3 0 2 1 -1 -1 2 -1
-2 3 2 4 3 3 -1 3 -4 -4 -1 2 -0 -5 -6 3 14 -11 6 0 -4 1 3 0 -1 0 0 -0 -1 -1 2 4 4 2 4 5 7 4 1 0 7 5 0 2
1 6 1 0 3 5 -4 -6 3 -0 -3 3 -6 -11 -14 11 -3 -1 -3 1 2 -2 -2 -0 2 2 1 2 1 0 1 2 1 4 3 0 -1 0 3 2 -1 1 2 0
5 5 -1 1 2 0 -2 -2 0 1 0 0 -1 2 -12 8 -1 2 2 1 -2 3 -0 -0 -3 1 1 7 8 7 4 5 3 4 1 1 5 2 2 1 3 4 3 3
1 5 -2 3 -5 -2 -1 -3 -1 -0 3 0 0 -1 -1 1 0 1 1 3 5 -1 7 3 6 3 -2 -1 1 2 4 3 3 4 4 1 -1 1 1 3 5 4 2 5
1 3 8 -3 -5 3 -3 0 2 6 -3 -3 4 -8 -5 5 3 2 -3 -4 0 2 1 1 1 -1 4 3 -0 -2 -1 -3 -0 -0 1 -0 2 2 3 1 3 2 2 4
-8 2 1 7 -2 -5 2 1 2 3 13 -12 13 -0 3 0 -0 0 0 2 1 -0 0 -2 0 1 0 -3 0 -1 -2 -2 2 1 8 5 1 2 7 2 -2 2 5 4
7 3 -9 -12 8 -2 -1 0 1 7 12 -8 -10 -11 29 -3 1 3 -0 -6 -5 -2 -3 -3 -2 3 0 2 0 -4 -6 0 3 4 1 1 5 4 3 3 1 5 2 -0
6 -4 5 2 -1 6 -4 -3 -4 -2 -4 8 -6 0 -1 5 -1 -4 -5 -4 -7 -10 -10 -15 -16 -16 -12 -9 -3 -4 -2 1 -1 -0 -0 2 5 5 5 4 4 -4 -2 2
-2 -3 0 -6 3 -4 -2 -2 -1 -2 -3 -12 3 8 0 -2 -1 0 -3 -4 -6 -6 -6 -6 -6 -5 -5 -7 -10 -4 0 1 -2 -1 -2 -0 6 7 7 1 -0 0 -0 1
2 0 1 -25 1 8 -3 1 -1 4 20 -1 -1 4 -1 -0 1 -2 -1 -3 -5 -3 -0 -2 -3 -4 -4 -4 -5 -3 -4 -4 -4 -7 -3 0 1 -0 -2 -1 -7 -2 4 -0
1 3 8 -1 1 4 2 1 0 1 -4 3 3 3 0 -0 -0 -4 -4 -4 -2 -2 -4 -2 0 -0 2 -1 1 0 2 -0 -2 -2 -1 6 6 3 10 18 13 26 21 15
1 2 -0 -1 1 0 -4 -3 -2 -2 -5 -2 1 2 -1 -2 -2 -5 -5 -2 -4 -4 -5 -3 -6 -6 -5 -4 -5 -8 -0 -0 3 1 4 8 9 16 20 1 23 5 -1 0
-3 -2 1 4 2 0 -3 -2 -1 0 -3 1 -0 -3 -4 -3 -3 2 -2 -2 -2 -1 -3 -8 -8 -5 -3 -4 -4 -3 -6 -8 -1 1 4 4 1 2 2 3 -3 -1 -5 -8
-1 -1 -2 -0 1 -3 -1 0 3 2 1 0 -2 -1 -1 -1 -1 -2 -3 -0 -1 -6 -10 -6 -1 -4 -6 -4 -4 -1 1 -1 -7 -2 -3 4 4 -4 -1 -0 -3 -5 0 1
-4 -2 -1 -0 -1 -5 -2 -1 1 -5 -0 -2 -1 -3 -4 -3 -3 -3 -2 -6 -7 -9 -8 -3 -8 -5 -3 -2 -3 -2 2 2 2 -1 8 2 3 1 -1 3 -0 0 -2 1
-1 -2 2 -4 4 1 0 -4 0 2 1 -2 -3 -4 -4 -2 -2 -1 -2 -1 -0 -3 -3 -1 -4 -5 5 -2 -3 -8 1 -7 -1 9 24 25 10 1 -2 -2 2 -3 1 4
-3 3 -2 5 -5 -3 -3 -2 -3 -5 -1 -2 -3 -1 -3 -2 -1 1 -4 -1 -3 1 -4 -6 -7 -6 -12 -2 0 -3 -2 -3 -5 -12 3 14 38 5 3 1 -0 3 3 -1
0 -1 -4 -9 4 2 -2 -2 -2 -5 -2 -2 -4 -3 -2 -5 -2 -5 0 -1 -2 -3 -2 -4 -6 -3 -3 -5 -2 -0 -5 -6 -2 -3 -5 9 13 14 13 -0 0 1 2 1
-4 -1 -8 -14 18 4 17 -9 1 -2 -3 -3 -2 -3 -7 -7 -4 -4 -4 -6 -5 -5 -4 -2 -1 -4 -0 -2 -1 1 -2 -4 -4 -2 1 1 14 9 2 7 2 5 2 -0
Height
3128 3129 3128 3131 3130 3132 3132 3132 3132 3133 3128 3127 3126 3124 3125 3127 3126 3127 3127 3128 3128 3128 3128 3128 3128 3128 3128 3128 3128 3128 3128 3130 3130 3131 3132 3132 3133 3134 3134 3135 3135 3135 3135 3134
3125 3122 3126 3125 3127 3127 3128 3128 3129 3129 3125 3124 3121 3117 3119 3121 3120 3122 3123 3124 3124 3124 3124 3124 3124 3123 3123 3123 3123 3123 3124 3125 3126 3127 3127 3127 3128 3128 3128 3129 3129 3130 3130 3130
3119 3119 3119 3120 3121 3123 3123 3124 3126 3127 3123 3121 3117 3112 3113 3112 3114 3116 3118 3119 3120 3120 3120 3119 3118 3118 3118 3118 3118 3118 3119 3120 3120 3121 3121 3123 3123 3124 3125 3126 3126 3126 3125 3125
3113 3113 3113 3115 3116 3118 3120 3121 3120 3121 3122 3122 3118 3112 3110 3111 3110 3111 3113 3114 3113 3113 3114 3115 3114 3113 3113 3113 3113 3113 3114 3115 3116 3116 3118 3118 3119 3119 3119 3119 3120 3120 3120 3120
3106 3105 3107 3108 3110 3112 3114 3115 3117 3118 3118 3117 3117 3118 3106 3108 3109 3109 3110 3107 3108 3108 3108 3108 3108 3108 3108 3108 3109 3109 3109 3110 3111 3112 3113 3114 3114 3114 3114 3114 3114 3114 3115 3114
3101 3100 3103 3103 3105 3107 3108 3112 3115 3115 3116 3115 3110 3113 3100 3104 3105 3106 3106 3102 3104 3103 3103 3104 3104 3104 3105 3105 3105 3105 3105 3106 3107 3107 3108 3108 3109 3108 3109 3109 3109 3109 3108 3108
3094 3095 3095 3099 3101 3102 3104 3109 3112 3115 3114 3108 3104 3108 3100 3100 3100 3098 3099 3100 3100 3100 3099 3099 3099 3100 3099 3100 3100 3100 3101 3101 3101 3102 3102 3102 3103 3102 3102 3102 3102 3102 3102 3101
3089 3092 3089 3092 3095 3097 3099 3104 3105 3108 3101 3098 3102 3100 3096 3098 3095 3093 3094 3094 3096 3096 3095 3094 3095 3095 3095 3095 3095 3095 3096 3096 3096 3096 3097 3097 3097 3096 3096 3096 3096 3095 3095 3094
3085 3086 3085 3086 3088 3094 3094 3097 3099 3100 3099 3100 3096 3094 3093 3092 3090 3087 3088 3087 3087 3088 3089 3088 3089 3090 3090 3090 3090 3091 3090 3090 3091 3091 3090 3090 3090 3089 3089 3088 3088 3088 3087 3087
3081 3082 3082 3083 3085 3088 3089 3092 3096 3097 3097 3090 3083 3085 3088 3085 3087 3084 3084 3083 3084 3083 3083 3083 3084 3085 3085 3086 3086 3087 3087 3086 3084 3084 3085 3084 3083 3082 3082 3081 3081 3081 3081 3080
3077 3080 3079 3080 3080 3082 3085 3086 3088 3090 3090 3086 3082 3082 3080 3080 3081 3081 3081 3081 3081 3081 3081 3080 3080 3080 3080 3080 3080 3081 3081 3081 3081 3078 3078 3077 3075 3074 3074 3073 3072 3071 3071 3071
3071 3073 3075 3076 3075 3077 3078 3080 3083 3084 3083 3081 3081 3080 3078 3077 3077 3077 3077 3078 3077 3077 3076 3077 3077 3076 3076 3076 3075 3074 3072 3072 3072 3071 3070 3068 3067 3065 3063 3063 3062 3063 3062 3061
3064 3065 3070 3070 3074 3073 3070 3071 3074 3077 3079 3072 3076 3074 3073 3072 3071 3071 3072 3073 3072 3072 3071 3070 3069 3068 3066 3065 3064 3063 3062 3059 3058 3057 3057 3056 3056 3054 3053 3052 3052 3052 3051 3050
3056 3057 3057 3058 3064 3065 3065 3066 3067 3070 3071 3069 3064 3071 3071 3063 3065 3066 3066 3066 3066 3066 3065 3063 3062 3060 3057 3055 3053 3052 3050 3048 3046 3044 3045 3045 3044 3043 3043 3042 3042 3040 3038 3037
3051 3047 3053 3054 3057 3057 3058 3060 3062 3061 3062 3064 3063 3066 3062 3057 3055 3055 3054 3055 3055 3055 3056 3054 3052 3050 3048 3046 3044 3042 3040 3037 3034 3032 3033 3034 3034 3033 3033 3032 3031 3029 3028 3028
3044 3043 3046 3045 3049 3050 3049 3050 3052 3053 3055 3053 3056 3059 3053 3050 3048 3047 3044 3045 3044 3043 3043 3042 3040 3039 3037 3036 3035 3034 3032 3029 3028 3026 3023 3024 3025 3024 3024 3022 3022 3020 3018 3016
3039 3038 3040 3034 3043 3043 3041 3036 3038 3041 3046 3042 3044 3046 3044 3042 3042 3040 3039 3038 3038 3039 3038 3036 3034 3032 3030 3028 3026 3025 3023 3021 3020 3019 3018 3016 3015 3015 3015 3014 3011 3010 3008 3005
3028 3030 3034 3031 3032 3032 3025 3026 3029 3031 3032 3035 3036 3036 3037 3037 3037 3036 3036 3036 3035 3034 3033 3032 3029 3026 3024 3022 3019 3017 3016 3014 3012 3011 3009 3009 3008 3007 3006 3003 3001 2997 2996 2996
3022 3024 3026 3028 3026 3025 3022 3023 3026 3026 3028 3029 3031 3032 3033 3033 3034 3032 3032 3031 3030 3027 3025 3023 3021 3018 3017 3015 3012 3009 3007 3004 3003 3003 3002 3000 2999 2998 2994 2993 2991 2990 2989 2988
3019 3021 3025 3024 3023 3020 3019 3020 3022 3024 3025 3026 3027 3028 3029 3030 3029 3030 3028 3026 3024 3021 3017 3013 3011 3009 3006 3004 3002 2999 2997 2995 2993 2993 2992 2989 2988 2986 2986 2985 2985 2983 2981 2983
3019 3020 3020 3020 3020 3019 3019 3020 3021 3024 3027 3023 3024 3024 3025 3025 3024 3022 3020 3018 3015 3012 3009 3006 3001 2996 2993 2991 2988 2987 2985 2983 2982 2980 2981 2981 2977 2976 2976 2975 2975 2976 2976 2979
3017 3018 3018 3019 3020 3019 3016 3017 3022 3021 3019 3020 3020 3020 3020 3019 3018 3015 3013 3010 3007 3004 3001 2997 2992 2989 2985 2982 2977 2975 2973 2970 2968 2969 2969 2968 2968 2967 2967 2968 2968 2969 2971 2974
3015 3014 3016 3018 3015 3014 3014 3015 3015 3015 3015 3014 3013 3013 3012 3011 3009 3006 3004 3001 2998 2995 2991 2988 2984 2980 2978 2973 2968 2964 2963 2961 2959 2956 2953 2955 2956 2956 2958 2959 2961 2963 2966 2968
3009 3010 3011 3012 3012 3011 3011 3011 3011 3010 3009 3008 3007 3006 3005 3003 3001 2998 2996 2993 2991 2988 2984 2980 2977 2973 2969 2965 2961 2958 2954 2951 2948 2947 2945 2943 2943 2945 2948 2952 2955 2957 2960 2961
3006 3006 3006 3006 3007 3006 3005 3005 3005 3004 3004 3002 3001 3000 2998 2996 2993 2990 2987 2985 2982 2979 2976 2973 2970 2965 2961 2957 2953 2949 2946 2943 2939 2936 2935 2933 2934 2936 2941 2943 2947 2951 2953 2954
2999 3001 3002 3001 3003 3000 3002 2998 2999 2998 2997 2996 2994 2992 2989 2988 2985 2982 2980 2978 2976 2973 2970 2966 2962 2958 2952 2948 2945 2941 2938 2935 2930 2926 2925 2926 2927 2930 2931 2936 2940 2945 2947 2949